Flag for China Weather past 2 weeks in Langfang, Hebei, China

Now
75 °F

Sunny.


Feels Like: 78 °F
Forecast: 67 / 91 °F
Wind: 6 mph from North

Location: Beijing Airport

Current Time: Jul 2, 2015 at 7:57:43 AM

Latest Report: Jul 2, 2015 at 7:30 AM


Visibility: 10 mi

Pressure: 29.62 "Hg

Humidity: 54%

Dew point: 57 °F

Location of LangfangLocation

Historic Weather in Langfang — Graph

°F

Langfang temperature yesterday

Maximum temperature yesterday: 91 °F (at 1:00 PM)
Minimum temperature yesterday: 61 °F (at 2:30 AM)
Average temperature yesterday: 76 °F

Past Weeks' High & Low Weather Summary

 TemperatureHumidityPressure
High91 °F (Jun 18, 2:30 PM)100% (Jun 26, 8:30 AM)29.92 "Hg (Jun 26, 8:30 AM)
Low61 °F (Jun 20, 4:00 AM)17% (Jun 18, 2:00 PM)29.42 "Hg (Jul 1, 2:30 AM)
Average77 °F65%29.68 "Hg
* Reported Jun 17 6:30 AM — Jul 2 6:30 AM, Langfang, Weather by CustomWeather, © 2015

Note: Actual official high and low records may vary slightly from our data, if they occured in-between our weather recording intervals... More about our weather records

Advertising

Langfang weather history for previous 24 hours

 ConditionsComfort  
Time TempWeatherWind HumidityBarometerVisibility
6:30 AM
Thu, Jul 2
70 °FSunny.6 mph64%29.62 "Hg10 mi
5:30 AM64 °FSunny.8 mph73%29.59 "Hg10 mi
5:00 AM61 °FSunny.8 mph83%29.59 "Hg10 mi
4:30 AM63 °FClear.8 mph73%29.59 "Hg10 mi
4:00 AM61 °FClear.6 mph77%29.59 "Hg10 mi
3:30 AM64 °FClear.3 mph73%29.59 "Hg10 mi
3:00 AM64 °FClear.3 mph73%29.59 "Hg10 mi
2:30 AM66 °FClear.1 mph64%29.59 "Hg10 mi
2:00 AM68 °FClear.1 mph60%29.59 "Hg10 mi
1:30 AM66 °FClear.6 mph64%29.59 "Hg10 mi
1:00 AM66 °FClear.3 mph68%29.59 "Hg10 mi
12:30 AM70 °FPassing clouds.3 mph57%29.56 "HgN/A
12:00 AM73 °FClear.8 mph50%29.56 "Hg10 mi
11:30 PM
Wed, Jul 1
73 °FPassing clouds.6 mph50%29.56 "HgN/A
11:00 PM73 °FPassing clouds.8 mph50%29.56 "HgN/A
10:30 PM73 °FPassing clouds.8 mph53%29.56 "HgN/A
10:00 PM75 °FPassing clouds.6 mph47%29.56 "HgN/A
9:30 PM75 °FPassing clouds.8 mph50%29.56 "HgN/A
9:00 PM72 °FPassing clouds.3 mph57%29.53 "HgN/A
8:30 PM72 °FPassing clouds.6 mph61%29.53 "HgN/A
8:00 PM73 °FPassing clouds.6 mph61%29.53 "HgN/A
7:30 PM73 °FSunny.6 mph69%29.53 "Hg10 mi
7:00 PM75 °FSunny.6 mph57%29.50 "Hg10 mi
6:30 PM73 °FPassing clouds.3 mph78%29.50 "HgN/A
6:00 PM73 °FSunny.1 mph78%29.50 "Hg10 mi
5:30 PM77 °FSprinkles. Passing clouds.8 mph54%29.50 "HgN/A
5:00 PM77 °FSprinkles. Passing clouds.10 mph57%29.47 "HgN/A
4:30 PM86 °FPassing clouds.10 mph35%29.42 "HgN/A
4:00 PM86 °FSprinkles. Clear.8 mph38%29.42 "HgN/A
3:30 PM88 °FPassing clouds.6 mph33%29.42 "HgN/A
3:00 PM88 °FSunny.6 mph29%29.42 "Hg10 mi
2:30 PM88 °FSunny.6 mph29%29.42 "Hg10 mi
2:00 PM88 °FPassing clouds.8 mph29%29.42 "HgN/A
1:30 PM90 °FPassing clouds.13 mph27%29.42 "HgN/A
1:00 PM91 °FSunny.6 mph34%29.42 "Hg10 mi
12:30 PM88 °FPassing clouds.6 mph27%29.45 "HgN/A
12:00 PM88 °FPassing clouds.3 mph31%29.45 "HgN/A
11:30 AM88 °FPassing clouds.6 mph33%29.45 "HgN/A
11:00 AM86 °FPassing clouds.3 mph35%29.45 "HgN/A
10:30 AM86 °FPassing clouds.3 mph38%29.45 "HgN/A
10:00 AM84 °FPassing clouds.3 mph43%29.45 "HgN/A
9:30 AM84 °FPassing clouds.3 mph43%29.47 "HgN/A
9:00 AM81 °FPassing clouds.3 mph51%29.47 "HgN/A
8:30 AM77 °FPassing clouds.3 mph57%29.47 "HgN/A
8:00 AM77 °FPassing clouds.3 mph61%29.47 "HgN/A
7:30 AM75 °FSunny.6 mph65%29.47 "Hg10 mi
7:00 AM70 °FSunny.8 mph73%29.47 "Hg10 mi
Weather by CustomWeather, © 2015

See weather overviewHow to use our weather pages